CAPE
8 2 nan nan nan nan nan nan nan nan nan nan nan nan nan nan nan nan nan nan nan nan nan nan nan nan nan nan nan nan nan nan nan nan 0 2 4 4 6 6 6 7 9 14 14 15 16 16 16 17 18 19 22 22 24 27 27 30 34 41 41 46 54 59 59 66 73 80 84 84 88 88 86 86 83 87 89 89 95 98 98 97 97 100 100 101
nan nan nan nan nan nan nan nan nan nan nan nan nan nan nan nan nan nan nan nan nan nan nan nan nan nan nan nan nan nan nan nan nan nan 0 2 3 3 4 5 5 6 9 12 12 13 15 15 15 15 17 18 19 19 23 26 26 27 32 39 39 45 52 60 60 67 72 75 79 79 81 77 73 73 76 73 79 79 88 91 91 91 93 93 93 101
nan nan nan nan nan nan nan nan nan nan nan nan nan nan nan nan nan nan nan nan nan nan nan nan nan nan nan nan nan nan nan nan nan nan 0 1 1 1 3 4 4 5 7 9 9 12 13 14 14 15 16 18 18 18 24 25 25 26 30 36 36 41 49 55 55 60 67 67 69 69 71 68 63 63 68 73 78 78 87 92 92 88 90 90 90 101
0 nan nan nan nan nan nan nan nan nan nan nan nan nan nan nan nan nan nan nan nan nan nan nan nan nan nan nan nan nan nan nan nan nan nan 0 1 1 2 3 3 5 6 8 8 10 12 14 14 16 16 17 20 20 24 25 25 25 30 34 34 40 45 48 48 52 55 59 57 57 58 58 57 57 59 68 72 72 77 76 76 73 77 84 84 91
3 nan nan nan nan nan nan nan nan nan nan nan nan nan nan nan nan nan nan nan nan nan nan nan nan nan nan nan nan nan nan nan nan nan nan nan 0 0 1 3 3 4 5 7 7 9 10 13 13 14 16 19 23 23 25 28 28 29 31 35 35 37 42 46 46 45 47 48 48 48 48 48 50 50 53 59 60 60 61 61 61 59 59 68 68 75
0 nan nan nan nan nan nan nan nan nan nan nan nan nan nan nan nan nan nan nan nan nan nan nan nan nan nan nan nan nan nan nan nan nan nan nan 0 0 1 2 2 3 4 6 6 6 8 10 10 13 15 17 20 20 23 28 28 30 32 34 34 35 39 41 41 42 41 42 43 43 41 43 45 45 42 45 47 47 48 50 50 50 56 58 58 65
nan nan nan nan nan nan nan nan nan nan nan nan nan nan nan nan nan nan nan nan nan nan nan nan nan nan nan nan nan nan nan nan nan nan nan nan 0 0 0 1 1 2 4 4 4 5 6 7 7 10 12 15 17 17 20 23 23 26 28 30 30 33 35 37 37 37 36 35 36 36 34 33 34 34 33 34 35 35 39 45 45 49 54 59 59 59
nan nan nan nan nan nan nan nan nan nan nan nan nan nan nan nan nan nan nan nan nan nan nan nan nan nan nan nan nan nan nan nan nan nan nan nan nan nan nan 0 0 1 2 3 3 3 5 5 5 7 9 11 13 13 15 15 15 16 17 16 16 18 18 21 21 22 22 23 23 23 22 23 23 23 24 24 26 26 29 36 36 47 59 64 64 72
nan nan nan nan nan nan nan nan nan nan nan nan nan nan nan nan nan nan nan nan nan nan nan nan nan nan nan nan nan nan nan nan nan nan nan nan nan nan nan 0 0 1 2 2 2 3 4 5 5 7 8 8 10 10 10 10 10 10 10 10 10 12 12 15 15 16 19 18 19 19 20 21 20 20 23 24 26 26 28 35 35 44 59 69 69 82
nan nan nan nan nan nan nan nan nan nan nan nan nan nan nan nan nan nan nan nan nan nan nan nan nan nan nan nan nan nan nan nan nan nan 0 nan 2 2 0 0 0 nan 2 2 2 2 2 3 3 3 4 4 4 4 4 3 3 3 3 4 4 6 7 10 10 13 16 17 19 19 20 22 24 24 27 28 31 31 33 39 39 46 60 70 70 91
nan nan nan nan nan nan nan nan nan nan nan nan nan nan nan nan nan nan nan nan nan nan nan nan nan nan nan nan nan nan nan nan nan nan nan 0 1 1 1 0 0 0 1 1 1 0 0 nan nan 0 0 0 0 0 0 0 0 1 2 3 3 5 6 9 9 11 14 17 20 20 24 26 28 28 32 35 38 38 40 43 43 48 61 81 81 91
nan nan nan nan nan nan nan nan nan nan nan nan nan nan nan nan nan nan nan nan nan nan nan nan nan nan nan nan nan nan nan nan nan nan nan nan nan nan nan nan nan nan nan nan nan nan nan nan nan nan nan nan nan nan nan nan nan 1 2 3 3 5 7 9 9 13 16 20 23 23 26 29 34 34 36 40 44 44 44 49 49 53 63 73 73 83
nan nan nan nan nan nan nan nan nan nan nan nan nan nan nan nan nan nan nan nan nan nan nan nan nan nan nan nan nan nan nan nan nan nan nan nan nan nan nan nan nan nan nan nan nan nan nan nan nan nan nan nan nan nan nan nan nan 0 1 3 3 5 8 12 12 16 19 24 26 26 29 32 35 35 38 43 45 45 45 49 49 52 56 68 68 75
nan nan nan nan nan nan nan nan nan nan nan nan nan nan nan nan nan nan nan nan nan nan nan nan nan nan nan nan nan nan nan nan nan nan nan nan nan nan nan nan nan nan nan nan nan nan nan nan nan nan nan nan nan nan nan nan nan 0 1 3 3 6 10 16 16 20 22 27 28 28 30 31 35 35 36 41 44 44 47 48 48 54 55 61 61 67
nan nan nan nan nan nan nan nan nan nan nan nan nan nan nan nan nan nan nan nan nan nan nan nan nan nan nan nan nan nan nan nan nan nan nan nan nan nan nan nan nan nan nan nan nan nan nan nan nan nan nan nan nan nan nan nan nan 1 2 5 5 9 13 18 18 22 25 27 28 28 30 32 36 36 39 39 43 43 47 49 49 51 55 57 57 65
nan nan nan nan nan nan nan nan nan nan nan nan nan nan nan nan nan nan nan nan nan nan nan nan nan nan nan nan nan nan nan nan nan nan nan nan nan nan nan nan nan nan nan nan nan nan nan nan nan nan nan nan nan nan nan nan nan 2 4 7 7 12 15 19 19 22 25 27 29 29 31 34 35 35 38 41 43 43 48 49 49 53 56 58 58 64
nan nan nan nan nan nan nan nan nan nan nan nan nan nan nan nan nan nan nan nan nan nan nan nan nan nan 0 nan nan nan nan nan nan nan nan nan nan nan nan nan nan nan nan nan nan nan nan nan nan nan nan nan nan nan nan 0 0 3 5 8 8 11 15 18 18 22 25 28 30 30 33 34 37 37 37 42 43 43 48 49 49 53 58 61 61 66
nan nan nan nan nan nan nan nan nan nan nan nan nan nan nan nan nan nan nan nan nan nan nan 0 0 1 1 0 nan nan nan nan nan nan nan nan nan nan nan nan nan nan nan nan nan nan nan nan nan nan nan nan nan nan 0 1 1 3 5 8 8 11 14 16 16 20 24 29 30 30 32 34 37 37 38 39 44 44 46 49 49 56 59 64 64 66
nan nan nan nan nan nan nan nan nan nan nan nan nan nan nan nan nan nan nan nan nan nan 0 1 1 1 0 nan nan nan nan nan nan nan nan nan nan nan nan nan nan nan nan nan nan nan nan nan nan nan nan nan nan nan 0 1 1 2 4 6 6 9 11 15 15 17 24 28 29 29 31 32 33 33 35 36 37 37 44 47 47 54 55 59 59 64
nan nan nan nan nan nan nan nan nan nan nan nan nan nan nan nan nan nan nan nan nan 0 1 2 2 1 1 0 nan nan nan nan nan nan nan nan nan nan nan nan nan nan nan nan nan nan nan nan nan nan nan nan nan nan 0 1 1 2 3 5 5 7 9 12 12 16 21 26 28 28 32 33 33 33 33 34 35 35 39 41 41 45 51 55 55 59
nan nan nan nan nan nan nan nan nan nan nan nan nan nan nan nan nan nan nan 1 1 2 3 4 4 3 1 0 nan nan nan nan nan nan nan nan nan nan nan nan nan nan nan nan nan nan nan nan nan nan nan nan nan nan 0 0 0 1 2 4 4 5 7 10 10 14 17 22 23 23 27 27 31 31 30 31 33 33 35 40 40 42 48 52 52 59
nan nan nan nan nan nan nan nan nan nan nan nan nan nan nan nan nan nan 1 3 3 5 5 5 5 4 2 0 nan nan nan nan nan nan nan nan nan nan nan nan nan nan nan nan nan nan nan nan nan nan nan nan nan nan 0 0 0 1 1 3 3 4 5 7 7 10 14 16 18 18 19 24 27 27 30 30 29 29 32 37 37 39 44 47 47 51
nan nan nan nan nan nan nan nan nan nan nan nan nan nan nan nan nan nan nan 5 5 10 9 6 6 3 0 nan nan nan nan nan nan nan nan nan nan nan nan nan nan nan nan nan nan nan nan nan nan nan nan nan nan nan nan 0 0 0 1 2 2 3 4 7 7 9 10 12 15 15 17 20 25 25 29 30 31 31 34 35 35 37 39 40 40 43
nan nan nan nan nan nan nan nan nan nan nan nan nan nan nan nan nan nan 4 11 11 12 4 1 1 0 nan nan nan nan nan nan nan nan nan nan nan nan nan nan nan nan nan nan nan nan nan nan nan nan nan nan nan nan nan nan nan nan 0 1 1 2 5 6 6 7 8 11 14 14 16 20 23 23 26 27 29 29 31 34 34 36 35 39 39 40
nan nan nan nan nan nan nan nan nan nan nan 1 22 22 10 4 15 15 12 5 5 3 1 0 0 nan nan nan nan nan nan nan nan nan nan nan nan nan nan nan nan nan nan nan nan nan nan nan nan nan nan nan nan nan nan nan nan nan 0 2 2 3 4 5 5 6 8 10 12 12 14 17 21 21 24 25 27 27 29 31 31 34 35 37 37 39
nan nan nan nan nan 2 2 4 6 6 5 11 29 29 24 16 9 9 4 2 2 1 0 nan nan nan nan nan nan nan nan nan nan nan nan nan nan nan nan nan nan nan nan nan nan nan nan nan nan nan nan nan nan nan nan nan nan 0 1 2 2 4 4 5 5 6 7 8 10 10 14 16 19 19 22 25 27 27 28 30 30 34 34 36 36 38
nan nan nan 1 1 3 5 10 16 16 23 29 16 16 12 7 5 5 3 0 0 nan nan nan nan nan nan nan nan nan nan nan nan nan nan nan nan nan nan nan nan nan nan nan nan nan nan nan nan nan nan nan nan nan nan 0 0 1 2 2 2 3 3 3 3 5 6 8 10 10 13 16 19 19 21 24 27 27 30 31 31 32 33 33 33 35
nan 0 1 2 2 4 6 12 17 17 22 29 36 36 20 5 3 3 0 nan nan nan nan nan nan nan nan nan nan nan nan nan nan nan nan nan nan nan nan nan nan nan nan nan nan nan nan nan nan nan nan nan nan nan nan 0 0 1 1 1 1 1 2 3 3 4 5 7 9 9 12 16 18 18 20 24 25 25 29 31 31 34 33 24 24 6
5 7 6 7 7 8 10 13 15 15 17 18 22 22 14 0 nan nan nan nan nan nan nan nan nan nan nan nan nan nan nan nan nan nan nan nan nan nan nan nan nan nan nan nan nan nan nan nan nan nan nan nan nan nan nan 0 0 0 0 0 0 1 1 2 2 3 5 7 9 9 12 15 18 18 21 23 25 25 29 32 32 33 25 13 13 3
2 5 6 7 7 7 7 3 6 6 12 14 15 15 10 nan nan nan nan nan nan nan nan 1 1 0 0 nan nan nan nan nan nan nan nan nan nan nan nan nan nan nan nan nan nan nan nan nan nan nan nan nan nan nan nan nan nan nan nan 0 0 0 1 2 2 4 5 8 10 10 12 14 18 18 18 21 23 23 26 30 30 24 9 3 3 2
nan nan nan nan nan nan nan nan 0 0 4 7 8 8 3 nan nan nan nan nan nan nan 0 1 1 0 0 nan nan nan nan nan nan nan nan nan nan nan nan nan nan nan nan nan nan nan nan nan nan nan nan nan nan nan nan nan nan nan nan nan nan nan 0 2 2 4 7 9 11 11 13 15 17 17 18 21 23 23 25 29 29 22 3 2 2 1
nan nan nan nan nan nan nan nan nan nan nan nan nan nan nan nan nan nan nan 0 0 0 0 0 0 0 0 nan nan nan nan nan nan nan nan nan nan nan nan nan nan nan nan nan nan nan nan nan nan nan nan nan nan nan nan nan nan nan nan nan nan nan nan 1 1 2 3 8 11 11 13 12 13 13 15 17 21 21 25 28 28 26 5 0 0 2
nan nan nan nan nan nan nan nan nan nan nan nan nan nan nan nan nan nan nan nan nan 0 nan nan nan 0 0 0 nan nan nan nan nan nan nan nan nan nan nan nan nan nan nan nan nan nan nan nan nan nan nan nan nan nan nan nan nan nan nan nan nan nan nan nan nan nan nan 1 3 3 9 8 11 11 13 15 20 20 25 28 28 30 22 1 1 2
nan nan nan nan nan nan nan nan nan nan nan nan nan nan nan nan nan nan nan nan nan nan 0 nan nan 0 nan nan nan nan nan nan nan nan nan nan nan nan nan nan nan nan nan nan nan nan nan nan nan nan nan nan nan nan nan nan nan nan nan nan nan nan nan nan nan nan nan nan nan nan nan nan 6 6 7 13 16 16 22 28 28 33 38 17 17 5
nan nan nan nan nan nan nan nan nan nan nan nan nan nan nan nan nan nan nan nan nan nan nan nan nan nan 0 nan 0 0 nan nan nan nan 1 nan nan nan nan nan nan nan nan nan nan nan nan nan nan nan nan nan nan nan nan nan nan nan nan nan nan nan nan nan nan nan nan nan nan nan nan nan nan nan nan 6 16 16 25 30 30 35 41 46 46 26
nan nan nan nan nan nan nan nan nan nan nan nan nan nan nan nan nan nan nan nan nan nan 0 0 0 1 0 nan nan nan nan nan nan nan 1 0 nan nan nan nan nan nan nan nan nan nan nan nan nan 0 1 nan nan nan nan nan nan nan nan nan nan nan nan nan nan nan nan nan nan nan nan nan nan nan nan 13 22 22 28 31 31 35 35 40 40 39
nan nan nan nan nan nan nan nan nan nan nan nan nan nan nan nan nan nan nan nan nan nan nan 1 1 2 4 0 nan nan nan nan nan nan 1 1 0 0 nan nan nan 1 nan nan nan nan nan nan nan nan nan nan nan nan nan nan nan nan nan nan nan nan nan nan nan nan nan nan nan nan nan nan nan nan 0 15 14 14 20 26 26 24 27 27 27 31
nan nan nan nan nan nan nan nan nan nan nan nan nan nan nan nan nan nan nan nan nan 0 0 0 0 0 4 7 1 1 0 0 nan nan nan 0 0 0 nan 1 1 1 0 nan nan nan nan nan nan nan nan nan nan nan nan nan nan nan nan nan nan nan nan nan nan nan nan nan 0 0 0 nan nan nan nan nan nan nan nan nan nan 4 17 17 17 24
nan nan nan nan nan nan nan nan nan nan nan nan nan nan nan nan nan nan nan 0 0 0 0 0 0 0 nan nan 4 4 4 0 nan nan nan nan nan nan nan nan nan nan 0 nan nan nan nan nan nan nan nan nan nan nan nan nan nan nan nan nan nan nan nan nan nan nan nan nan nan nan nan nan nan nan nan nan nan nan nan nan nan nan nan nan nan 7
0 nan nan nan nan nan nan nan nan nan nan nan nan nan nan 0 0 0 nan nan nan nan nan nan nan 0 0 2 2 2 1 nan nan nan nan nan nan nan nan nan nan 0 nan nan nan nan nan nan nan nan nan nan nan nan nan nan nan nan 0 nan nan nan nan nan nan nan nan nan nan nan nan nan nan nan nan nan nan nan nan nan nan nan nan nan nan nan
nan nan nan nan nan nan nan nan nan nan nan nan nan nan 0 1 1 1 0 0 0 0 nan nan nan 0 0 nan nan nan nan nan nan nan nan nan nan nan nan nan nan nan nan nan nan nan nan nan nan nan nan nan nan nan nan nan nan 0 4 nan nan nan nan nan nan nan nan nan nan nan nan nan nan nan nan nan nan nan nan nan nan nan nan nan nan nan
0 nan nan nan nan nan nan nan nan nan nan 0 0 0 1 1 1 1 1 1 1 0 0 0 0 0 0 nan nan nan nan nan nan nan nan nan nan nan nan nan nan nan nan nan nan nan nan nan nan nan nan nan nan nan nan nan nan nan 1 nan nan nan nan nan nan nan nan nan nan nan 0 nan nan nan nan nan nan nan nan nan nan nan nan nan nan nan
0 0 nan nan nan nan nan 0 0 0 0 0 0 0 1 1 1 1 1 1 1 1 1 1 1 1 1 0 nan nan nan nan nan nan nan nan nan nan nan nan nan nan nan nan nan nan nan 0 0 nan nan nan nan nan nan nan nan nan nan 0 0 nan nan nan nan nan nan nan nan nan nan nan nan nan nan nan nan nan nan nan nan 2 1 nan nan nan
1 nan nan nan nan nan nan nan nan nan 0 0 0 0 1 0 2 2 2 1 1 2 1 1 1 1 0 0 nan nan nan nan nan nan 0 0 nan nan nan nan nan nan 0 nan nan nan nan nan nan nan nan nan nan nan nan nan nan nan nan nan nan nan nan nan nan nan nan nan nan nan nan nan nan nan nan nan nan nan nan nan nan nan nan nan nan nan
nan nan nan nan nan 0 0 0 nan nan nan nan nan nan 1 1 2 2 1 1 1 2 1 1 1 0 nan 0 0 0 nan nan nan nan nan 3 12 12 4 0 0 0 nan nan nan nan nan nan nan nan nan nan nan nan nan nan nan nan nan nan nan nan nan nan nan nan nan nan nan nan nan nan nan nan nan nan nan nan nan nan nan nan nan nan nan nan
0 0 1 0 0 0 1 0 0 0 nan 0 nan nan 0 1 1 1 2 1 1 1 1 2 2 0 nan 0 0 0 0 nan nan nan nan nan nan nan 1 1 1 0 nan nan nan 0 nan nan nan nan nan 0 nan nan nan nan nan nan nan nan nan nan nan nan nan nan nan nan nan nan nan nan nan nan nan nan nan nan nan nan nan nan nan nan nan nan
0 1 1 1 1 1 1 0 nan nan 0 0 0 0 1 1 1 1 1 1 1 1 1 2 2 0 0 0 0 0 0 0 nan nan nan nan nan nan nan nan nan 0 nan nan nan 0 1 1 1 0 nan nan nan nan nan nan nan nan nan nan nan nan nan nan nan nan nan nan nan nan nan nan nan nan nan nan nan nan nan nan nan nan nan nan nan nan
1 1 1 1 1 1 1 0 nan nan 0 0 nan nan 1 1 1 1 1 1 1 2 3 1 1 0 0 1 0 0 0 nan nan nan nan 0 nan nan nan nan nan 0 0 1 1 3 1 1 1 0 nan nan nan nan nan nan nan nan nan nan nan nan nan nan nan nan nan nan nan nan nan nan nan nan nan nan nan nan nan nan nan nan nan nan nan nan
1 1 1 1 1 0 0 0 nan nan 0 0 0 0 1 2 7 7 2 1 1 2 1 1 1 1 1 0 0 0 1 0 nan nan nan nan nan nan nan nan nan nan nan 0 0 1 0 0 0 0 nan nan nan nan nan nan nan nan nan nan nan nan nan nan nan nan nan nan nan nan nan nan nan nan nan nan nan nan nan nan nan nan nan nan nan nan
1 1 1 0 0 0 0 nan nan nan 0 0 0 0 0 1 1 1 1 1 1 1 0 0 0 1 1 0 0 0 0 nan nan nan nan nan nan nan nan nan nan 1 0 nan nan nan nan 0 0 1 5 0 nan nan nan nan nan nan nan nan nan nan nan nan nan nan nan 0 0 0 0 0 1 1 nan nan nan nan nan nan nan nan nan nan nan nan
1 1 0 1 1 0 nan nan nan nan nan nan 0 0 0 0 1 1 1 1 1 1 1 1 1 0 0 0 0 0 0 nan nan nan nan nan nan nan nan nan nan 0 nan nan nan nan nan nan nan nan 2 11 2 2 nan nan nan nan nan nan nan nan nan nan nan nan 2 3 1 1 1 1 1 1 0 nan nan nan 0 nan nan nan nan nan nan nan
CIN
-0 -0 nan nan nan nan nan nan nan nan nan nan nan nan nan nan nan nan nan nan nan nan nan nan nan nan nan nan nan nan nan nan nan nan 0 0 0 0 0 0 0 0 0 0 0 0 0 0 0 0 0 0 0 0 0 0 0 0 0 0 0 0 0 0 0 0 0 0 0 0 0 0 0 0 0 0 0 0 0 0 0 0 0 0 0 0
nan nan nan nan nan nan nan nan nan nan nan nan nan nan nan nan nan nan nan nan nan nan nan nan nan nan nan nan nan nan nan nan nan nan 0 0 0 0 0 0 0 0 0 0 0 0 0 0 0 0 0 0 0 0 0 0 0 0 0 0 0 0 0 0 0 0 0 0 0 0 0 0 0 0 0 0 0 0 0 0 0 0 0 0 0 0
nan nan nan nan nan nan nan nan nan nan nan nan nan nan nan nan nan nan nan nan nan nan nan nan nan nan nan nan nan nan nan nan nan nan 0 0 0 0 0 0 0 0 0 0 0 0 0 0 0 0 0 0 0 0 0 0 0 0 0 0 0 0 0 0 0 0 0 0 0 0 0 0 0 0 0 0 0 0 0 0 0 0 0 0 0 0
-1 nan nan nan nan nan nan nan nan nan nan nan nan nan nan nan nan nan nan nan nan nan nan nan nan nan nan nan nan nan nan nan nan nan nan 0 0 0 0 0 0 0 0 0 0 0 0 0 0 0 0 0 0 0 0 0 0 0 0 0 0 0 0 0 0 0 0 0 0 0 0 0 0 0 0 0 0 0 0 0 0 0 0 0 0 0
0 nan nan nan nan nan nan nan nan nan nan nan nan nan nan nan nan nan nan nan nan nan nan nan nan nan nan nan nan nan nan nan nan nan nan nan 0 0 0 0 0 0 0 0 0 0 0 0 0 0 0 0 0 0 0 0 0 0 0 0 0 0 0 0 0 0 0 0 0 0 0 0 0 0 0 0 0 0 0 0 0 0 0 0 0 0
0 nan nan nan nan nan nan nan nan nan nan nan nan nan nan nan nan nan nan nan nan nan nan nan nan nan nan nan nan nan nan nan nan nan nan nan 0 0 0 0 0 0 0 0 0 0 0 0 0 0 0 0 0 0 0 0 0 0 0 0 0 0 0 0 0 0 0 0 0 0 0 0 0 0 0 0 0 0 0 0 0 0 0 0 0 0
nan nan nan nan nan nan nan nan nan nan nan nan nan nan nan nan nan nan nan nan nan nan nan nan nan nan nan nan nan nan nan nan nan nan nan nan 0 0 0 0 0 0 0 0 0 0 0 0 0 0 0 0 0 0 0 0 0 0 0 0 0 0 0 0 0 0 0 0 0 0 0 0 0 0 0 0 0 0 0 0 0 0 0 0 0 0
nan nan nan nan nan nan nan nan nan nan nan nan nan nan nan nan nan nan nan nan nan nan nan nan nan nan nan nan nan nan nan nan nan nan nan nan nan nan nan 0 0 0 0 0 0 0 0 0 0 0 0 0 0 0 0 0 0 0 0 0 0 0 0 0 0 0 0 0 0 0 0 0 0 0 0 0 0 0 0 0 0 0 0 0 0 0
nan nan nan nan nan nan nan nan nan nan nan nan nan nan nan nan nan nan nan nan nan nan nan nan nan nan nan nan nan nan nan nan nan nan nan nan nan nan nan 0 0 0 0 0 0 0 0 0 0 0 0 0 0 0 0 0 0 0 0 0 0 0 0 0 0 0 0 0 0 0 0 0 0 0 0 0 0 0 0 0 0 0 0 0 0 0
nan nan nan nan nan nan nan nan nan nan nan nan nan nan nan nan nan nan nan nan nan nan nan nan nan nan nan nan nan nan nan nan nan nan 0 nan 0 0 -0 -0 -0 nan 0 0 0 0 0 0 0 0 0 0 0 0 0 0 0 0 0 0 0 0 0 0 0 0 0 0 0 0 0 0 0 0 0 0 0 0 0 0 0 0 0 0 0 0
nan nan nan nan nan nan nan nan nan nan nan nan nan nan nan nan nan nan nan nan nan nan nan nan nan nan nan nan nan nan nan nan nan nan nan -1 0 0 0 0 0 0 0 0 0 0 0 nan nan 0 0 0 0 0 0 0 0 0 0 0 0 0 0 0 0 0 0 0 0 0 0 0 0 0 0 0 0 0 0 0 0 0 0 0 0 0
nan nan nan nan nan nan nan nan nan nan nan nan nan nan nan nan nan nan nan nan nan nan nan nan nan nan nan nan nan nan nan nan nan nan nan nan nan nan nan nan nan nan nan nan nan nan nan nan nan nan nan nan nan nan nan nan nan 0 0 0 0 0 0 0 0 0 0 0 0 0 0 0 0 0 0 0 0 0 0 0 0 0 0 0 0 0
nan nan nan nan nan nan nan nan nan nan nan nan nan nan nan nan nan nan nan nan nan nan nan nan nan nan nan nan nan nan nan nan nan nan nan nan nan nan nan nan nan nan nan nan nan nan nan nan nan nan nan nan nan nan nan nan nan 0 0 0 0 0 0 0 0 0 0 0 0 0 0 0 0 0 0 0 0 0 0 0 0 0 0 0 0 0
nan nan nan nan nan nan nan nan nan nan nan nan nan nan nan nan nan nan nan nan nan nan nan nan nan nan nan nan nan nan nan nan nan nan nan nan nan nan nan nan nan nan nan nan nan nan nan nan nan nan nan nan nan nan nan nan nan 0 0 0 0 0 0 0 0 0 0 0 0 0 0 0 0 0 0 0 0 0 0 0 0 0 0 0 0 0
nan nan nan nan nan nan nan nan nan nan nan nan nan nan nan nan nan nan nan nan nan nan nan nan nan nan nan nan nan nan nan nan nan nan nan nan nan nan nan nan nan nan nan nan nan nan nan nan nan nan nan nan nan nan nan nan nan 0 0 0 0 0 0 0 0 0 0 0 0 0 0 0 0 0 0 0 0 0 0 0 0 0 0 0 0 0
nan nan nan nan nan nan nan nan nan nan nan nan nan nan nan nan nan nan nan nan nan nan nan nan nan nan nan nan nan nan nan nan nan nan nan nan nan nan nan nan nan nan nan nan nan nan nan nan nan nan nan nan nan nan nan nan nan 0 0 0 0 0 0 0 0 0 0 0 0 0 0 0 0 0 0 0 0 0 0 0 0 0 0 0 0 0
nan nan nan nan nan nan nan nan nan nan nan nan nan nan nan nan nan nan nan nan nan nan nan nan nan nan -0 nan nan nan nan nan nan nan nan nan nan nan nan nan nan nan nan nan nan nan nan nan nan nan nan nan nan nan nan 0 0 0 0 0 0 0 0 0 0 0 0 0 0 0 0 0 0 0 0 0 0 0 0 0 0 0 0 0 0 0
nan nan nan nan nan nan nan nan nan nan nan nan nan nan nan nan nan nan nan nan nan nan nan -1 -1 -2 -1 0 nan nan nan nan nan nan nan nan nan nan nan nan nan nan nan nan nan nan nan nan nan nan nan nan nan nan 0 0 0 0 0 0 0 0 0 0 0 0 0 0 0 0 0 0 0 0 0 0 0 0 0 0 0 0 0 0 0 0
nan nan nan nan nan nan nan nan nan nan nan nan nan nan nan nan nan nan nan nan nan nan -2 -3 -3 -2 -0 nan nan nan nan nan nan nan nan nan nan nan nan nan nan nan nan nan nan nan nan nan nan nan nan nan nan nan 0 0 0 0 0 0 0 0 0 0 0 0 0 0 0 0 0 0 0 0 0 0 0 0 0 0 0 0 0 0 0 0
nan nan nan nan nan nan nan nan nan nan nan nan nan nan nan nan nan nan nan nan nan -11 -6 -4 -4 -3 -0 -1 nan nan nan nan nan nan nan nan nan nan nan nan nan nan nan nan nan nan nan nan nan nan nan nan nan nan 0 0 0 0 0 0 0 0 0 0 0 0 0 0 0 0 0 0 0 0 0 0 0 0 0 0 0 0 0 0 0 0
nan nan nan nan nan nan nan nan nan nan nan nan nan nan nan nan nan nan nan -5 -5 -8 -5 -4 -4 -4 -2 -2 nan nan nan nan nan nan nan nan nan nan nan nan nan nan nan nan nan nan nan nan nan nan nan nan nan nan 0 0 0 0 0 0 0 0 0 0 0 0 0 0 0 0 0 0 0 0 0 0 0 0 0 0 0 0 0 0 0 0
nan nan nan nan nan nan nan nan nan nan nan nan nan nan nan nan nan nan -6 -7 -7 -4 -3 -4 -4 -3 -0 -5 nan nan nan nan nan nan nan nan nan nan nan nan nan nan nan nan nan nan nan nan nan nan nan nan nan nan 0 0 0 0 0 0 0 0 0 0 0 0 0 0 0 0 0 0 0 0 0 0 0 0 0 0 0 0 0 0 0 0
nan nan nan nan nan nan nan nan nan nan nan nan nan nan nan nan nan nan nan -1 -1 -1 -2 -4 -4 -6 -5 nan nan nan nan nan nan nan nan nan nan nan nan nan nan nan nan nan nan nan nan nan nan nan nan nan nan nan nan 0 0 0 0 0 0 0 0 0 0 0 0 0 0 0 0 0 0 0 0 0 0 0 0 0 0 0 0 0 0 0
nan nan nan nan nan nan nan nan nan nan nan nan nan nan nan nan nan nan -0 -0 -0 -0 -4 -6 -6 -8 nan nan nan nan nan nan nan nan nan nan nan nan nan nan nan nan nan nan nan nan nan nan nan nan nan nan nan nan nan nan nan nan 0 0 0 0 0 0 0 0 0 0 0 0 0 0 0 0 0 0 0 0 0 0 0 0 0 0 0 0
nan nan nan nan nan nan nan nan nan nan nan -21 -6 -6 -4 -2 -0 -0 -1 -2 -2 -3 -5 -5 -5 nan nan nan nan nan nan nan nan nan nan nan nan nan nan nan nan nan nan nan nan nan nan nan nan nan nan nan nan nan nan nan nan nan 0 0 0 0 0 0 0 0 0 0 0 0 0 0 0 0 0 0 0 0 0 0 0 0 0 0 0 0
nan nan nan nan nan -2 0 0 0 0 -3 -9 -5 -5 -4 -0 -0 -0 -3 -3 -3 -3 -5 nan nan nan nan nan nan nan nan nan nan nan nan nan nan nan nan nan nan nan nan nan nan nan nan nan nan nan nan nan nan nan nan nan nan 0 0 0 0 0 0 0 0 0 0 0 0 0 0 0 0 0 0 0 0 0 0 0 0 0 0 0 0 0
nan nan nan 0 0 0 0 0 0 0 0 0 -2 -2 -3 -2 -2 -2 -0 -2 -2 nan nan nan nan nan nan nan nan nan nan nan nan nan nan nan nan nan nan nan nan nan nan nan nan nan nan nan nan nan nan nan nan nan nan 0 0 0 0 0 0 0 0 0 0 0 0 0 0 0 0 0 0 0 0 0 0 0 0 0 0 0 0 0 0 0
nan 0 0 0 0 0 0 0 0 0 0 0 0 0 0 -2 -1 -1 -3 nan nan nan nan nan nan nan nan nan nan nan nan nan nan nan nan nan nan nan nan nan nan nan nan nan nan nan nan nan nan nan nan nan nan nan nan 0 0 0 0 0 0 0 0 0 0 0 0 0 0 0 0 0 0 0 0 0 0 0 0 0 0 0 0 0 0 -12
0 0 0 0 0 0 0 0 0 0 0 0 0 0 0 -9 nan nan nan nan nan nan nan nan nan nan nan nan nan nan nan nan nan nan nan nan nan nan nan nan nan nan nan nan nan nan nan nan nan nan nan nan nan nan nan 0 0 0 0 0 0 0 0 0 0 0 0 0 0 0 0 0 0 0 0 0 0 0 0 0 0 0 0 0 0 -17
-0 0 0 0 0 0 0 0 0 0 0 0 0 0 0 nan nan nan nan nan nan nan nan -1 -1 -3 -4 nan nan nan nan nan nan nan nan nan nan nan nan nan nan nan nan nan nan nan nan nan nan nan nan nan nan nan nan nan nan nan nan 0 0 0 0 0 0 0 0 0 0 0 0 0 0 0 0 0 0 0 0 0 0 0 -4 -19 -19 -25
nan nan nan nan nan nan nan nan -0 -0 0 0 0 0 0 nan nan nan nan nan nan nan -2 -1 -1 -2 -3 nan nan nan nan nan nan nan nan nan nan nan nan nan nan nan nan nan nan nan nan nan nan nan nan nan nan nan nan nan nan nan nan nan nan nan 0 0 0 0 0 0 0 0 0 0 0 0 0 0 0 0 0 0 0 0 -16 -26 -26 -29
nan nan nan nan nan nan nan nan nan nan nan nan nan nan nan nan nan nan nan -6 -6 -6 -4 -4 -4 -3 -2 nan nan nan nan nan nan nan nan nan nan nan nan nan nan nan nan nan nan nan nan nan nan nan nan nan nan nan nan nan nan nan nan nan nan nan nan 0 0 0 0 0 0 0 0 0 0 0 0 0 0 0 0 0 0 0 -14 -30 -30 -21
nan nan nan nan nan nan nan nan nan nan nan nan nan nan nan nan nan nan nan nan nan -8 nan nan nan -3 -2 -2 nan nan nan nan nan nan nan nan nan nan nan nan nan nan nan nan nan nan nan nan nan nan nan nan nan nan nan nan nan nan nan nan nan nan nan nan nan nan nan -1 -2 -2 0 0 0 0 0 0 0 0 0 0 0 0 0 -29 -29 -22
nan nan nan nan nan nan nan nan nan nan nan nan nan nan nan nan nan nan nan nan nan nan -9 nan nan -3 nan nan nan nan nan nan nan nan nan nan nan nan nan nan nan nan nan nan nan nan nan nan nan nan nan nan nan nan nan nan nan nan nan nan nan nan nan nan nan nan nan nan nan nan nan nan 0 0 0 0 0 0 0 0 0 0 0 -4 -4 -16
nan nan nan nan nan nan nan nan nan nan nan nan nan nan nan nan nan nan nan nan nan nan nan nan nan nan -4 nan -2 -2 nan nan nan nan -6 nan nan nan nan nan nan nan nan nan nan nan nan nan nan nan nan nan nan nan nan nan nan nan nan nan nan nan nan nan nan nan nan nan nan nan nan nan nan nan nan 0 0 0 0 0 0 0 0 0 0 0
nan nan nan nan nan nan nan nan nan nan nan nan nan nan nan nan nan nan nan nan nan nan -8 -13 -13 -10 -9 nan nan nan nan nan nan nan -1 -6 nan nan nan nan nan nan nan nan nan nan nan nan nan -1 -0 nan nan nan nan nan nan nan nan nan nan nan nan nan nan nan nan nan nan nan nan nan nan nan nan 0 0 0 0 0 0 0 0 0 0 0
nan nan nan nan nan nan nan nan nan nan nan nan nan nan nan nan nan nan nan nan nan nan nan -3 -3 -3 -2 -10 nan nan nan nan nan nan 0 -10 -7 -7 nan nan nan -2 nan nan nan nan nan nan nan nan nan nan nan nan nan nan nan nan nan nan nan nan nan nan nan nan nan nan nan nan nan nan nan nan -22 0 0 0 0 0 0 0 0 0 0 0
nan nan nan nan nan nan nan nan nan nan nan nan nan nan nan nan nan nan nan nan nan -15 -8 -4 -4 -2 0 0 -8 -8 -6 -1 nan nan nan -14 -7 -7 nan -3 -3 -1 -2 nan nan nan nan nan nan nan nan nan nan nan nan nan nan nan nan nan nan nan nan nan nan nan nan nan -9 -9 -11 nan nan nan nan nan nan nan nan nan nan -4 0 0 0 0
nan nan nan nan nan nan nan nan nan nan nan nan nan nan nan nan nan nan nan -4 -4 -5 -5 -3 -3 -3 nan nan -4 -4 -2 -19 nan nan nan nan nan nan nan nan nan nan -3 nan nan nan nan nan nan nan nan nan nan nan nan nan nan nan nan nan nan nan nan nan nan nan nan nan nan nan nan nan nan nan nan nan nan nan nan nan nan nan nan nan nan -1
0 nan nan nan nan nan nan nan nan nan nan nan nan nan nan 0 0 0 nan nan nan nan nan nan nan -7 -11 -4 -0 -0 -9 nan nan nan nan nan nan nan nan nan nan -2 nan nan nan nan nan nan nan nan nan nan nan nan nan nan nan nan -3 nan nan nan nan nan nan nan nan nan nan nan nan nan nan nan nan nan nan nan nan nan nan nan nan nan nan nan
nan nan nan nan nan nan nan nan nan nan nan nan nan nan -0 -0 -0 -0 0 -2 -2 -4 nan nan nan -7 -9 nan nan nan nan nan nan nan nan nan nan nan nan nan nan nan nan nan nan nan nan nan nan nan nan nan nan nan nan nan nan -3 0 nan nan nan nan nan nan nan nan nan nan nan nan nan nan nan nan nan nan nan nan nan nan nan nan nan nan nan
0 nan nan nan nan nan nan nan nan nan nan -0 -2 -2 -1 -1 -1 -1 -0 -4 -4 -5 -5 -6 -6 -5 -5 nan nan nan nan nan nan nan nan nan nan nan nan nan nan nan nan nan nan nan nan nan nan nan nan nan nan nan nan nan nan nan -1 nan nan nan nan nan nan nan nan nan nan nan -8 nan nan nan nan nan nan nan nan nan nan nan nan nan nan nan
0 0 nan nan nan nan nan -0 -0 -0 -1 -3 -4 -4 -4 -3 -1 -1 0 -1 -1 -1 -2 -4 -4 -3 -2 -5 nan nan nan nan nan nan nan nan nan nan nan nan nan nan nan nan nan nan nan -5 -5 nan nan nan nan nan nan nan nan nan nan -6 -6 nan nan nan nan nan nan nan nan nan nan nan nan nan nan nan nan nan nan nan nan -4 -6 nan nan nan
0 nan nan nan nan nan nan nan nan nan -4 -5 -4 -4 -3 -4 -1 -1 -1 -1 -1 -1 -3 -6 -6 -5 -2 -3 nan nan nan nan nan nan -31 -27 nan nan nan nan nan nan -11 nan nan nan nan nan nan nan nan nan nan nan nan nan nan nan nan nan nan nan nan nan nan nan nan nan nan nan nan nan nan nan nan nan nan nan nan nan nan nan nan nan nan nan
nan nan nan nan nan 0 0 0 nan nan nan nan nan nan -2 -3 -1 -1 -3 -2 -2 -1 -4 -5 -5 -3 nan -4 -4 -4 nan nan nan nan nan -17 -8 -8 -23 -25 -25 -20 nan nan nan nan nan nan nan nan nan nan nan nan nan nan nan nan nan nan nan nan nan nan nan nan nan nan nan nan nan nan nan nan nan nan nan nan nan nan nan nan nan nan nan nan
-0 -1 0 0 0 -0 0 -0 -3 -3 nan -4 nan nan -4 -6 -6 -6 -3 -3 -3 -3 -4 -5 -5 -4 nan -1 -3 -3 -5 nan nan nan nan nan nan nan -25 -26 -26 -23 nan nan nan -16 nan nan nan nan nan -13 nan nan nan nan nan nan nan nan nan nan nan nan nan nan nan nan nan nan nan nan nan nan nan nan nan nan nan nan nan nan nan nan nan nan
-0 -0 -1 -1 -1 -1 -1 -3 nan nan -2 -2 -3 -3 -4 -7 -7 -7 -5 -4 -4 -5 -5 -5 -5 -4 -4 -4 -5 -5 -4 -5 nan nan nan nan nan nan nan nan nan -26 nan nan nan -18 -16 -15 -15 -13 nan nan nan nan nan nan nan nan nan nan nan nan nan nan nan nan nan nan nan nan nan nan nan nan nan nan nan nan nan nan nan nan nan nan nan nan
0 -0 -1 -1 -1 -1 -1 -2 nan nan -1 -3 nan nan -3 -6 -6 -6 -6 -6 -6 -4 -1 -4 -4 -4 -3 -4 -4 -4 -3 nan nan nan nan -10 nan nan nan nan nan -19 -18 -15 -15 -11 -15 -25 -25 -25 nan nan nan nan nan nan nan nan nan nan nan nan nan nan nan nan nan nan nan nan nan nan nan nan nan nan nan nan nan nan nan nan nan nan nan nan
-0 -0 -1 -1 -1 -1 -2 -3 nan nan -2 -1 -5 -5 -5 -1 0 0 -4 -6 -6 -5 -4 -2 -2 -2 -2 -4 -3 -3 -1 -2 nan nan nan nan nan nan nan nan nan nan nan -16 -16 -16 -20 -27 -27 -24 nan nan nan nan nan nan nan nan nan nan nan nan nan nan nan nan nan nan nan nan nan nan nan nan nan nan nan nan nan nan nan nan nan nan nan nan
-3 -1 -2 -1 -1 -1 -2 nan nan nan -2 -2 -4 -4 -6 -5 -5 -5 -6 -5 -5 -4 -4 -3 -3 -2 -2 -3 -4 -4 -4 nan nan nan nan nan nan nan nan nan nan -12 -15 nan nan nan nan -21 -21 -20 -11 -10 nan nan nan nan nan nan nan nan nan nan nan nan nan nan nan -32 -50 -50 -48 -33 -25 -25 nan nan nan nan nan nan nan nan nan nan nan nan
-1 -2 -3 -1 -1 -1 nan nan nan nan nan nan -3 -3 -4 -5 -5 -5 -6 -6 -6 -5 -4 -4 -4 -4 -3 -2 -2 -2 -3 nan nan nan nan nan nan nan nan nan nan -13 nan nan nan nan nan nan nan nan -11 -1 -13 -13 nan nan nan nan nan nan nan nan nan nan nan nan -19 -19 -34 -34 -38 -30 -20 -20 -17 nan nan nan -9 nan nan nan nan nan nan nan
Wind_Speed
2 2 3 4 4 3 3 4 4 4 4 4 3 3 4 4 4 4 5 6 7 7 7 7 7 8 9 11 12 13 13 13 13 13 13 13 13 14 14 14 14 15 15 15 15 16 16 16 16 16 16 17 17 17 17 17 17 18 18 18 18 18 19 19 19 19 19 19 19 19 20 20 20 20 20 20 20 21 21 21 21 22 22 22 22 22
2 2 2 4 4 3 2 4 4 4 4 4 4 3 3 4 4 4 5 6 7 7 7 7 7 8 9 10 11 13 13 13 13 13 13 13 14 14 14 14 15 15 15 15 15 16 16 16 16 16 16 16 16 17 17 17 17 17 18 18 18 18 18 19 19 19 19 19 19 19 20 20 20 20 20 20 21 21 21 21 22 22 22 22 22 22
3 2 2 4 4 4 3 4 4 4 4 4 4 3 4 5 5 4 4 5 6 6 6 6 7 7 8 9 10 12 13 13 13 13 13 13 14 14 15 15 15 15 15 15 15 15 15 15 16 16 16 16 16 17 17 17 17 17 18 18 18 18 18 18 18 19 19 19 19 19 19 20 20 20 20 20 21 21 21 22 22 22 22 22 22 22
2 2 3 3 4 4 3 3 3 3 3 3 3 4 5 5 5 5 5 5 5 6 6 7 7 7 7 7 8 10 12 13 13 13 14 14 14 15 15 15 15 15 15 15 15 15 15 15 15 16 16 16 16 17 17 17 17 18 18 18 18 18 18 18 18 18 19 19 19 19 19 19 20 20 20 20 21 21 21 21 22 22 22 22 22 22
2 2 2 2 2 2 2 2 2 2 2 2 3 4 4 5 4 4 4 5 6 6 6 6 7 7 6 5 7 9 12 13 13 13 14 14 15 15 15 15 15 15 15 15 15 15 15 15 16 16 16 16 17 17 17 18 18 18 18 18 18 18 18 18 18 18 18 19 19 19 19 19 19 20 20 20 20 21 21 21 21 22 22 22 22 22
1 2 2 1 1 1 1 1 1 2 2 2 3 4 4 4 4 4 4 5 5 5 5 5 5 6 6 6 8 10 11 12 13 13 14 14 14 14 15 15 15 15 15 15 15 15 16 16 16 16 17 17 17 17 18 18 18 18 18 18 18 18 18 18 18 18 18 18 18 19 19 19 19 19 20 20 20 21 21 21 21 21 22 22 22 22
1 1 1 1 1 1 1 1 2 2 2 2 3 3 4 4 4 4 4 4 4 4 4 5 5 6 6 7 8 9 10 11 12 12 13 13 13 13 14 14 14 14 14 15 15 16 16 16 17 17 17 17 18 18 18 18 18 18 18 18 18 18 18 18 18 18 18 18 18 18 18 19 19 19 19 20 20 20 21 21 21 21 22 22 22 22
2 2 1 1 1 1 1 2 2 2 2 2 3 3 3 3 3 3 3 4 4 4 4 4 5 5 5 6 7 7 7 8 8 9 10 11 11 12 12 13 14 14 15 15 16 16 16 17 17 17 17 18 18 18 18 18 18 18 18 18 18 18 18 18 18 18 18 18 18 18 18 18 18 19 19 19 20 20 20 21 21 21 22 22 22 22
2 2 2 2 2 2 2 2 2 2 2 2 2 3 3 3 3 3 3 4 4 4 4 4 4 4 5 5 6 6 6 7 7 7 7 7 8 9 11 12 13 14 15 15 16 16 17 17 17 17 17 18 18 18 18 18 17 17 17 17 17 17 17 17 17 17 17 17 17 17 18 18 18 19 19 19 20 20 20 20 21 21 22 22 22 23
3 2 2 2 2 2 2 2 2 2 2 2 2 2 3 3 4 4 4 4 3 2 2 3 4 4 5 5 5 6 6 7 8 9 9 9 9 10 10 11 11 12 14 15 16 16 16 17 17 17 17 17 17 17 17 17 17 17 16 16 16 16 16 16 16 16 16 17 17 17 17 18 18 19 19 19 20 20 20 20 21 21 22 22 22 23
3 2 2 2 2 2 2 2 2 2 2 2 2 3 3 4 4 4 4 3 3 2 2 3 3 4 4 4 5 5 5 6 6 8 9 10 10 11 11 11 11 12 13 14 15 15 16 16 17 17 17 17 17 17 16 16 16 16 16 16 16 16 16 16 16 16 16 16 17 17 18 18 19 19 19 20 20 20 20 21 21 21 22 22 23 23
2 2 1 2 2 2 1 2 2 2 2 3 3 3 4 3 3 2 3 3 3 3 3 3 3 3 4 4 4 5 5 5 5 5 5 6 6 7 8 8 9 10 11 12 13 14 15 15 16 16 16 16 16 16 15 15 15 15 15 15 15 15 15 15 16 16 16 17 17 18 18 19 19 20 20 20 21 21 21 21 21 21 22 22 23 23
2 1 1 2 2 2 2 2 2 2 3 3 3 3 2 2 2 2 2 3 3 3 3 3 3 3 3 4 4 4 4 5 5 4 4 4 4 4 4 5 5 6 7 7 8 9 12 13 14 14 15 15 15 15 15 14 14 15 15 15 15 15 15 16 16 17 17 18 18 19 19 20 20 20 20 21 21 21 21 21 21 22 22 22 23 23
2 2 2 2 2 2 2 2 2 2 2 2 2 2 2 2 2 2 2 3 3 3 3 4 4 4 3 4 3 4 4 4 4 4 4 4 3 3 4 4 5 5 5 6 6 7 9 10 10 11 13 13 14 14 13 14 14 15 15 15 15 16 16 17 17 18 18 19 19 19 20 20 20 21 21 21 21 21 21 21 22 22 22 22 23 23
2 2 2 2 2 2 2 2 2 2 2 2 2 2 2 3 2 2 2 3 3 3 3 4 4 4 3 3 3 3 4 4 4 4 4 4 4 3 4 5 5 5 5 6 6 7 8 8 7 7 9 10 11 12 13 13 14 15 16 16 17 17 18 18 18 19 19 19 20 20 20 20 21 21 21 21 21 22 22 22 22 22 22 23 23 23
1 1 2 2 2 2 2 2 2 2 2 2 2 2 3 3 2 2 2 3 3 3 3 4 4 4 3 3 3 3 3 4 4 4 5 5 4 4 4 5 5 6 6 6 6 6 6 6 6 7 7 10 12 14 15 15 16 16 17 17 18 18 19 19 19 19 20 20 20 20 21 21 21 21 21 21 22 22 22 22 22 23 23 23 23 23
1 1 2 2 2 2 2 2 2 2 2 2 3 3 3 2 2 2 2 2 2 2 3 3 4 4 3 3 3 3 3 4 4 5 5 6 5 4 4 4 5 6 7 6 6 6 6 6 6 6 7 10 13 16 16 17 17 18 18 19 19 19 19 20 20 20 20 20 21 21 21 21 21 21 22 22 22 22 22 22 22 23 23 23 23 24
1 1 1 2 2 2 2 2 2 2 2 3 3 2 2 2 2 2 2 2 2 3 3 3 3 3 3 3 3 3 3 4 5 5 6 6 6 5 4 4 5 6 7 7 6 6 6 6 6 7 8 13 16 17 18 18 19 19 19 19 20 20 20 20 20 20 21 21 21 21 21 21 21 22 22 22 22 22 22 22 22 23 23 23 23 24
2 2 2 2 2 2 3 2 2 2 2 2 2 2 2 2 2 2 2 2 3 3 4 4 4 3 4 4 4 4 4 5 5 6 6 7 6 5 4 4 5 6 7 6 6 6 6 6 7 10 13 16 17 18 19 19 19 19 20 20 20 20 20 20 21 21 21 21 21 21 22 22 21 22 22 22 22 22 22 22 22 22 23 23 23 23
2 2 2 2 2 3 3 2 2 2 2 2 2 2 3 3 2 2 2 3 3 3 4 4 4 4 4 4 5 5 4 5 5 5 6 6 6 5 4 4 5 6 7 6 6 6 6 6 7 9 13 15 17 18 19 19 19 20 20 20 20 21 21 21 21 21 21 21 21 21 21 21 21 21 21 21 22 22 22 22 22 22 22 23 23 23
3 3 2 2 2 2 2 2 2 2 2 2 2 2 3 3 3 3 3 3 3 3 3 4 4 4 4 5 5 5 5 5 5 5 5 5 5 5 4 4 5 6 7 6 6 5 6 6 6 7 10 14 17 18 19 20 20 20 21 21 21 21 21 21 21 21 21 21 21 21 21 21 21 21 21 22 22 22 22 22 22 22 22 22 23 23
3 3 3 2 2 2 2 2 2 3 3 3 2 2 3 3 3 3 3 3 3 4 4 4 4 4 5 5 6 5 5 5 5 5 4 5 6 6 4 4 4 5 6 6 6 6 6 6 6 7 10 15 17 19 20 20 21 21 21 21 21 21 21 22 21 21 21 21 21 21 21 21 21 21 22 22 22 22 22 22 22 22 22 22 22 23
3 3 3 3 3 3 3 2 2 3 3 2 3 3 2 3 3 4 3 3 4 4 5 5 5 5 6 6 6 5 5 5 4 4 4 5 6 6 4 3 4 5 6 5 6 6 6 7 7 8 11 15 18 19 20 21 21 21 22 22 22 22 22 22 21 21 21 21 21 21 21 22 22 22 22 22 22 22 22 22 22 22 22 22 22 22
3 4 3 3 3 2 2 2 2 2 2 2 2 2 2 2 3 3 3 3 4 4 5 5 6 6 6 6 6 6 5 4 4 4 4 5 5 5 4 3 4 6 6 6 6 6 7 7 7 7 8 13 17 19 20 21 21 22 22 22 22 22 22 21 21 21 21 21 21 22 22 22 22 22 22 22 22 22 22 22 22 22 22 22 22 22
4 4 4 3 3 3 3 3 3 3 3 3 2 2 2 3 3 4 4 4 4 5 5 6 6 6 5 5 5 4 4 4 3 3 3 4 4 4 4 3 4 5 6 6 6 6 7 7 7 7 7 11 15 18 20 21 21 22 22 22 22 21 21 21 21 21 21 21 22 22 22 22 22 22 22 22 22 22 22 22 22 22 22 22 22 22
6 6 6 7 7 8 8 8 8 8 8 6 4 4 4 4 4 4 4 4 5 5 5 6 6 6 5 4 4 4 3 3 3 3 3 3 4 4 4 3 4 5 6 6 6 6 7 8 8 8 8 9 12 16 19 20 21 21 21 21 21 21 21 21 21 21 21 22 22 22 22 22 22 22 22 22 22 22 22 22 22 22 22 22 22 21
8 9 10 10 11 11 11 11 11 12 12 11 9 7 6 5 5 5 5 5 5 5 5 6 6 6 5 4 4 3 3 3 2 2 2 3 4 4 4 3 4 5 6 6 6 6 8 8 8 8 8 8 10 12 16 18 19 20 20 20 20 21 21 21 21 21 22 22 22 22 22 22 22 22 22 22 22 22 22 22 22 22 22 21 19 17
8 8 9 9 10 10 11 11 12 13 13 13 13 12 9 6 5 5 6 5 4 4 5 6 6 6 5 4 4 4 4 3 3 3 3 3 4 4 4 3 4 4 5 5 6 6 8 8 8 8 8 8 8 9 12 15 17 18 19 19 20 21 21 21 21 21 21 21 21 21 21 22 22 22 22 22 22 22 22 22 22 21 20 17 13 10
6 7 7 8 9 9 10 11 12 12 13 14 14 12 9 6 5 5 5 4 4 4 5 6 6 5 5 5 4 4 4 4 4 4 3 3 3 3 3 3 3 4 5 5 5 5 6 6 6 6 7 8 8 8 8 11 13 14 15 18 19 20 20 20 21 21 21 21 21 21 21 21 21 22 22 22 22 22 22 22 21 19 15 12 9 8
4 5 6 7 7 8 8 8 9 10 12 13 13 11 8 5 5 5 5 4 4 5 6 6 6 5 5 5 4 4 4 4 3 3 3 3 3 3 3 3 4 4 4 4 5 5 5 4 4 4 5 7 7 7 7 8 9 10 11 13 15 16 18 19 19 20 20 21 21 21 21 21 21 21 21 21 21 21 21 22 20 16 10 8 8 7
5 5 5 5 6 6 6 6 6 7 9 10 10 9 7 5 4 4 4 4 5 5 5 5 5 5 5 4 4 4 3 2 2 2 1 2 2 3 3 4 4 4 3 3 4 5 5 5 4 4 4 6 6 7 7 8 8 8 8 9 10 12 15 17 18 18 19 19 20 20 21 21 21 21 21 21 21 21 21 21 19 15 9 7 7 7
5 5 5 5 5 5 5 4 4 5 5 5 5 5 5 5 5 4 4 4 4 4 5 5 5 5 5 4 4 4 3 3 3 3 3 2 2 3 3 4 4 4 3 3 3 4 5 5 5 4 5 6 6 7 7 8 8 8 8 8 8 9 13 14 15 15 15 17 18 18 19 20 20 20 20 20 20 20 21 21 19 15 9 7 7 7
5 5 5 5 5 4 4 4 4 4 4 4 4 4 4 4 5 5 4 4 4 4 4 5 5 5 5 6 6 5 4 4 4 5 4 3 3 3 3 4 4 4 4 4 4 4 5 5 6 6 6 6 6 6 7 8 8 8 8 8 7 8 11 11 11 11 12 13 14 15 16 18 18 19 19 20 20 20 20 20 19 16 12 8 7 7
5 5 5 5 5 4 4 4 4 4 4 4 4 4 3 3 4 4 4 4 3 4 4 4 5 5 5 6 6 6 5 5 5 6 5 4 3 3 4 4 4 5 4 4 4 5 5 6 7 7 6 6 6 6 6 7 8 7 6 7 7 7 8 9 9 9 10 10 10 10 11 12 14 15 16 17 18 18 18 19 19 18 16 12 9 8
5 5 5 5 4 4 4 4 4 4 3 3 3 3 3 3 2 3 3 3 3 4 4 4 5 5 5 5 6 6 6 5 5 6 6 4 4 3 4 4 4 5 5 5 5 5 5 7 8 8 7 7 6 6 5 6 6 6 6 7 7 7 7 7 8 8 9 9 9 8 8 8 9 10 12 14 15 17 18 19 19 20 20 17 15 11
4 5 5 4 4 4 4 4 3 3 3 3 2 2 2 2 2 2 2 2 3 4 4 5 5 5 6 6 6 7 7 6 6 6 6 5 4 4 4 4 5 5 5 5 5 5 5 7 8 9 9 8 7 6 5 5 5 6 6 7 7 8 8 8 8 8 8 9 9 8 8 8 8 8 9 13 15 17 19 19 20 20 20 20 19 17
4 4 4 4 4 4 3 3 2 2 2 2 2 2 2 2 2 2 3 3 3 4 5 5 6 6 7 7 7 7 7 7 7 7 8 6 5 5 5 5 5 6 5 6 6 6 6 7 8 9 8 8 7 6 6 6 6 6 7 7 7 8 8 8 8 8 8 9 9 9 8 8 8 8 9 13 15 16 17 18 19 19 20 20 20 20
4 4 4 4 3 3 3 2 2 2 2 2 2 2 3 3 3 4 4 4 4 5 5 6 6 8 10 10 10 10 10 10 10 10 10 8 7 6 6 6 7 7 6 6 6 7 7 8 8 8 7 7 8 8 8 8 8 8 8 8 8 8 8 8 8 7 7 8 9 10 10 9 9 8 9 10 10 10 10 11 12 14 16 16 18 19
4 4 4 3 3 3 2 2 2 2 2 2 3 3 4 4 5 5 5 5 6 6 7 7 7 7 8 9 11 12 12 11 11 10 10 9 8 7 8 8 8 8 7 7 7 7 7 8 8 8 8 8 8 9 8 8 8 9 9 9 8 8 8 7 7 7 7 8 9 10 10 9 8 8 8 7 7 7 7 7 8 9 10 9 11 14
4 4 4 4 4 3 3 3 2 2 3 3 4 4 4 4 5 5 5 6 6 6 7 7 7 7 7 8 9 11 11 9 9 9 8 8 7 7 8 8 8 8 8 7 7 7 8 8 9 9 9 8 8 8 8 8 8 9 10 9 8 7 7 7 7 7 7 8 8 9 9 8 8 8 8 8 8 7 7 6 7 7 8 7 7 8
4 4 4 4 4 3 3 3 3 3 3 4 4 4 4 4 4 4 5 5 5 5 5 6 6 6 7 7 8 9 9 9 9 9 8 8 9 9 8 9 8 8 8 8 8 8 8 9 9 9 9 9 9 10 10 10 10 11 12 10 9 9 10 10 9 8 8 8 8 9 9 9 9 9 9 9 8 8 7 7 7 8 8 7 6 6
4 4 4 4 3 3 3 3 4 4 4 4 4 4 4 4 4 4 4 4 4 4 4 4 5 6 6 7 7 7 8 8 9 9 10 10 10 10 10 9 9 8 8 8 8 9 9 9 9 9 9 9 9 9 10 10 10 10 11 10 11 11 11 10 8 7 7 8 8 8 10 10 10 9 10 9 9 8 8 8 9 10 9 7 7 7
4 4 4 3 3 3 4 4 4 4 4 4 4 4 4 4 4 4 5 5 5 5 5 5 5 5 6 6 6 6 6 7 8 9 10 10 11 11 11 11 10 9 8 8 8 9 9 9 9 9 9 9 9 9 10 10 10 10 10 10 10 10 8 7 6 6 7 8 8 9 9 9 9 9 9 9 9 8 8 9 11 11 11 9 8 8
4 4 3 3 3 3 3 4 4 4 4 4 4 4 4 4 5 5 5 5 5 5 5 4 5 5 6 7 7 6 5 5 6 8 8 9 9 9 10 10 11 10 9 9 8 8 8 9 9 9 9 8 9 9 10 10 10 10 10 10 10 10 9 8 8 8 8 9 8 8 9 9 9 9 10 9 9 8 7 8 8 9 10 9 9 9
4 3 3 3 3 3 4 4 4 4 4 4 4 5 5 5 5 5 4 5 5 5 5 5 5 5 6 6 6 6 6 6 5 5 6 8 9 10 9 9 9 9 9 9 9 8 8 8 9 9 8 8 9 9 10 10 10 11 11 10 11 11 11 10 10 10 10 10 9 9 9 9 9 9 9 9 9 8 8 8 8 8 8 8 8 9
3 3 3 3 3 4 4 4 4 4 4 5 5 5 5 4 4 4 5 5 5 5 5 5 5 5 6 6 6 6 6 6 5 5 5 6 6 7 7 7 7 8 8 8 9 9 9 9 9 9 8 9 9 10 10 10 10 10 10 10 10 10 11 11 10 10 10 10 10 10 9 9 9 9 9 9 9 9 8 8 8 9 8 8 8 9
3 3 4 3 4 4 4 4 4 4 5 5 5 5 5 4 4 4 5 5 5 5 5 5 5 6 7 7 6 6 6 7 6 6 5 6 6 6 6 6 7 8 8 8 8 9 9 9 9 9 9 9 10 10 10 10 10 10 10 10 10 10 10 10 10 10 10 10 10 9 8 8 8 8 9 9 9 9 9 8 8 8 8 8 8 9
4 4 4 4 4 4 4 4 4 5 5 5 5 5 5 5 5 5 5 5 5 5 5 5 6 6 7 7 7 7 7 7 7 7 6 6 6 5 6 6 6 7 8 8 9 10 10 10 10 10 10 10 10 11 11 10 10 10 10 10 10 10 10 10 10 9 9 10 10 9 7 7 7 8 9 9 9 9 9 8 8 8 8 8 8 8
4 4 4 4 4 4 5 5 4 5 5 5 5 5 5 5 6 6 5 5 5 5 5 6 6 7 7 7 7 7 8 8 7 7 6 6 6 5 5 5 5 6 7 7 8 8 9 10 11 11 11 11 11 12 12 11 11 10 10 10 9 10 10 10 9 9 9 9 9 8 6 6 7 7 8 9 10 10 10 9 9 8 7 7 8 8
4 4 4 4 4 5 5 5 5 5 5 6 5 5 5 5 5 5 5 5 5 5 5 6 6 7 7 7 7 7 8 7 7 7 7 6 6 6 5 5 6 6 6 6 6 6 6 7 8 10 12 13 13 12 12 11 11 10 10 9 9 9 9 9 9 9 8 9 9 8 7 7 7 7 7 8 10 11 11 10 9 8 7 7 7 8
4 4 4 4 5 5 5 5 5 5 5 6 6 6 5 5 5 5 5 5 5 6 6 6 6 7 8 8 8 8 8 7 8 8 7 6 6 6 6 6 6 6 6 6 6 5 5 5 6 7 9 12 14 13 11 10 10 10 10 9 8 8 8 8 8 8 9 9 9 8 8 8 8 7 7 7 9 10 11 10 10 9 7 7 7 8
Wind_Direction
166 175 181 183 188 199 215 221 228 236 243 245 247 250 254 260 265 271 277 280 281 281 280 280 280 281 282 283 283 283 283 284 284 285 285 286 286 287 287 287 288 288 288 288 287 287 286 286 285 285 285 284 284 284 283 283 283 284 284 284 284 284 284 285 285 286 286 287 288 289 289 290 290 291 292 291 291 291 290 289 289 288 287 287 287 287
168 177 187 184 188 198 222 229 233 238 244 248 250 254 261 271 276 279 279 278 277 276 276 277 278 279 280 281 282 284 284 285 285 286 286 286 287 287 287 287 287 288 288 288 287 287 286 285 284 284 284 283 283 283 283 283 283 283 283 283 283 284 284 285 286 286 287 287 288 288 289 289 290 290 290 290 289 288 288 287 287 287 286 286 286 286
162 174 191 189 191 196 212 223 230 236 244 251 258 265 274 278 279 278 277 275 273 271 271 274 275 277 277 278 281 283 285 286 287 287 287 287 287 287 287 287 287 287 287 287 286 286 285 284 284 283 283 283 283 283 283 283 283 283 282 283 283 283 284 285 285 286 286 287 287 288 288 288 289 289 288 288 287 287 286 286 286 286 286 286 286 286
160 178 195 194 196 199 208 218 227 235 244 255 264 271 274 275 274 272 270 270 270 270 270 271 273 274 276 277 280 284 286 287 287 287 287 287 286 286 286 286 286 286 286 286 285 284 284 284 284 283 284 284 284 284 284 283 283 283 283 283 283 284 284 285 285 286 286 286 287 287 287 287 287 287 287 287 286 286 286 285 285 285 285 285 284 284
177 192 201 201 204 209 213 225 238 249 256 260 265 267 268 267 267 268 268 268 270 271 272 272 274 276 279 280 283 285 286 287 287 287 286 286 286 285 285 285 285 285 285 285 284 284 284 284 285 285 285 285 285 285 284 284 284 284 284 284 284 284 285 285 285 286 286 286 286 286 286 286 286 286 285 285 284 284 284 284 283 283 283 283 282 282
212 214 208 207 215 230 240 249 256 261 263 262 261 261 261 261 262 264 267 269 271 273 275 277 279 281 283 283 284 286 287 287 287 287 286 286 286 285 285 285 285 285 285 285 285 285 286 286 286 286 286 286 285 285 284 284 284 284 284 284 284 285 285 285 286 286 286 286 286 285 285 285 284 283 283 283 282 282 282 282 282 282 282 281 281 280
245 244 227 214 216 231 246 248 249 250 253 256 258 257 257 258 258 260 263 268 272 275 278 279 280 281 282 283 285 287 289 289 289 289 288 288 288 288 287 288 288 288 288 288 288 287 287 286 286 285 285 285 284 284 284 284 284 284 284 284 284 285 285 285 286 286 286 285 285 284 283 282 282 281 281 281 281 281 281 281 281 280 280 280 280 279
246 256 249 238 236 240 242 241 239 239 241 249 256 261 263 265 266 267 268 269 269 272 274 276 278 280 283 287 290 293 294 294 294 294 292 291 291 290 290 291 291 290 290 289 288 287 286 286 285 284 284 283 283 283 283 283 283 284 284 285 285 285 285 285 285 285 285 284 283 282 282 281 280 280 280 279 279 279 279 279 279 279 279 279 279 278
235 246 251 249 252 254 255 250 243 238 235 247 257 268 276 280 280 278 272 267 264 264 271 280 285 288 290 294 297 299 298 297 296 294 292 291 290 289 290 290 290 290 289 289 288 287 286 286 285 284 284 283 283 283 283 284 284 284 285 285 285 285 285 285 285 284 284 283 283 282 281 281 280 280 279 279 278 278 278 278 278 278 278 278 278 278
225 231 239 241 244 248 255 257 253 244 235 243 254 262 270 273 275 274 271 267 266 268 277 287 292 295 297 298 298 298 297 296 294 292 290 289 287 287 287 288 288 288 289 289 289 289 289 288 288 287 286 286 285 285 285 285 285 286 286 285 285 285 285 284 284 284 284 283 283 282 282 281 281 280 279 279 278 277 277 277 277 277 277 277 277 277
220 221 229 239 243 244 245 253 255 249 237 241 244 246 246 249 256 264 273 278 285 290 293 293 294 296 298 298 297 297 297 295 293 291 290 289 289 288 289 289 290 290 291 292 293 293 293 292 291 291 289 289 288 287 287 287 286 286 286 285 284 284 284 283 284 284 284 284 284 283 283 282 282 281 280 279 279 278 277 277 277 277 277 277 277 277
219 219 226 239 246 249 245 245 241 235 226 231 238 241 241 239 245 261 281 290 295 297 296 294 292 292 294 295 296 296 296 294 292 291 289 290 291 292 293 294 295 296 296 297 297 296 295 294 293 293 291 290 290 289 288 287 286 286 285 284 284 284 283 284 284 284 285 285 285 284 284 283 283 282 281 280 280 279 279 279 278 278 277 277 276 276
216 218 224 233 239 242 241 241 235 228 221 228 241 254 264 267 273 280 284 286 289 292 295 296 294 292 289 290 291 293 293 293 293 293 294 296 297 299 301 301 301 300 300 299 297 295 295 295 294 293 292 291 290 289 288 288 287 286 286 286 285 285 285 286 286 286 286 286 285 285 285 284 284 283 282 282 281 281 280 279 279 278 277 277 276 276
220 221 227 232 234 236 235 238 243 246 245 252 265 278 287 291 290 286 280 280 285 291 298 298 298 296 293 289 288 289 292 294 296 297 299 300 301 302 303 302 301 299 298 296 294 293 294 295 295 293 292 291 290 289 289 288 288 288 288 288 288 288 287 287 287 287 286 286 286 285 285 284 284 283 283 282 281 280 280 279 278 278 277 277 276 276
230 235 241 244 244 245 247 254 265 274 284 289 290 287 285 281 280 280 282 288 294 300 304 300 298 297 295 294 293 294 295 298 300 302 303 302 301 302 303 302 300 298 296 294 292 292 293 294 292 290 289 289 288 288 289 289 289 289 289 289 289 288 288 288 287 287 286 286 285 285 284 284 283 283 282 281 281 280 279 279 278 278 277 277 276 276
255 261 263 264 267 271 280 293 295 295 295 291 285 279 275 276 279 285 290 297 302 306 306 304 302 300 295 294 295 297 300 303 306 307 305 301 300 301 305 303 300 297 294 292 290 290 291 289 287 286 286 287 288 288 289 289 289 289 289 289 288 288 288 287 287 287 286 286 285 285 284 284 283 282 282 281 281 280 280 279 279 278 278 277 277 276
255 258 263 271 277 282 289 293 291 286 285 280 276 274 275 282 291 299 303 304 305 304 301 302 301 301 300 300 300 302 309 311 310 307 303 299 298 300 304 302 298 294 292 290 289 289 289 288 287 286 285 286 287 288 288 288 288 288 288 288 288 287 287 287 287 286 286 285 285 284 284 283 283 282 282 282 281 281 280 280 280 279 278 278 277 276
240 249 261 268 272 275 277 276 272 270 268 270 274 277 284 292 298 300 299 296 295 293 292 291 291 294 298 300 303 309 316 315 311 307 302 297 296 297 302 299 294 291 289 288 287 287 286 284 283 283 284 286 288 288 289 289 288 288 288 288 288 287 287 287 287 287 286 286 285 285 284 284 284 283 283 282 282 281 281 281 280 280 279 278 278 277
242 246 252 257 260 262 263 261 261 262 266 274 284 293 296 297 295 291 285 281 281 281 284 284 285 286 289 291 295 303 312 313 311 306 300 296 295 297 301 296 291 288 286 286 285 285 284 282 282 284 286 288 288 289 289 288 288 288 288 288 288 288 288 288 287 287 287 286 286 286 286 285 285 285 284 284 283 283 282 281 281 280 280 279 278 278
254 249 246 250 255 259 259 258 262 270 283 298 304 303 297 293 288 282 276 274 273 274 277 280 281 282 284 286 291 299 311 314 310 303 296 293 293 294 298 295 291 288 286 284 284 284 284 283 284 286 287 288 288 289 289 289 289 289 289 289 289 289 289 289 288 288 288 287 287 287 287 286 286 286 285 284 284 283 282 282 281 280 280 280 279 279
273 266 262 265 268 269 268 269 278 291 304 314 311 299 288 283 277 272 269 273 274 275 277 278 279 282 287 291 296 303 311 310 304 298 293 290 289 290 293 289 286 284 283 283 283 284 286 286 285 286 287 289 289 290 290 290 290 290 291 290 290 290 290 290 289 289 289 288 288 288 287 287 286 286 285 284 284 283 282 282 281 281 280 280 280 279
283 281 283 287 286 284 283 287 294 302 313 318 306 286 278 276 276 279 284 288 286 283 280 280 283 287 290 292 294 296 299 295 291 289 289 287 286 285 285 280 280 281 283 286 289 290 289 288 288 288 289 290 291 291 292 291 291 291 291 292 291 291 291 290 290 290 289 289 288 288 287 287 286 286 285 285 284 284 283 283 282 282 282 281 281 280
280 281 285 286 285 285 289 295 302 306 309 298 283 275 277 282 287 291 297 294 289 286 285 285 286 287 287 285 285 285 283 278 275 274 277 278 281 282 283 283 285 286 286 288 291 293 292 291 290 290 291 292 292 292 293 293 293 292 292 292 292 291 291 290 290 289 289 288 288 287 287 287 286 286 286 286 285 285 285 284 284 283 283 282 281 281
276 274 271 270 270 272 277 279 282 284 283 280 281 284 291 285 281 280 281 282 283 285 288 288 286 284 281 280 280 279 274 268 263 262 265 271 276 281 287 291 290 288 287 289 293 295 295 293 292 293 293 293 293 293 293 293 293 292 292 291 291 290 290 290 289 289 289 288 288 288 288 288 287 287 287 286 286 286 285 285 284 283 283 282 281 280
281 278 275 272 269 266 263 261 261 261 262 266 272 278 281 274 271 269 271 274 278 280 281 281 281 280 280 280 280 278 276 269 263 260 263 271 277 281 286 291 290 289 288 291 294 296 296 294 294 294 294 293 293 293 292 292 291 291 290 290 290 289 289 290 290 290 290 289 289 289 289 288 288 287 287 286 286 285 285 284 284 283 282 282 281 280
278 278 278 277 275 273 270 269 267 265 264 264 265 269 275 280 281 281 280 275 275 275 277 278 279 280 282 283 283 281 280 274 266 262 263 273 279 283 286 289 288 287 288 291 293 295 296 296 296 296 295 293 292 291 290 290 290 289 289 290 290 290 291 291 291 291 291 290 290 289 288 288 287 287 286 286 285 285 285 284 284 283 282 282 281 280
270 273 275 276 276 276 275 274 272 271 270 270 270 271 276 281 283 280 275 272 272 274 276 278 280 282 283 281 279 279 280 278 274 271 273 279 281 283 284 286 286 287 289 291 295 298 299 297 296 295 293 290 288 288 288 289 290 291 291 292 293 294 294 293 293 292 291 290 289 289 288 287 287 286 286 286 285 285 285 284 284 283 283 282 281 279
261 266 271 273 275 275 275 274 273 272 271 271 270 270 271 272 272 270 268 270 272 274 273 274 277 280 282 280 281 281 284 283 282 280 278 275 274 274 279 284 287 290 294 295 297 297 296 292 290 289 288 287 286 287 288 292 294 295 296 296 296 295 294 293 292 292 291 290 290 289 288 288 287 287 286 286 285 285 285 285 285 284 284 283 281 278
257 263 267 270 271 272 271 271 270 269 268 267 266 265 264 262 261 262 265 269 271 270 269 269 271 274 278 281 284 285 282 277 271 265 260 261 263 267 277 285 292 297 301 302 300 296 289 284 284 285 286 288 290 292 295 299 300 299 299 297 295 294 293 293 292 292 291 291 290 289 289 288 287 287 286 286 286 285 285 285 286 285 285 282 280 277
281 279 276 274 271 270 268 266 265 264 264 263 262 261 259 255 254 256 261 263 264 264 265 266 267 270 275 282 285 282 275 265 257 251 250 257 266 275 287 292 297 302 309 308 303 297 289 283 280 281 286 293 297 300 302 302 301 299 296 294 293 292 292 292 292 292 292 291 290 290 289 289 288 287 287 287 286 286 286 286 286 286 283 280 277 274
296 292 287 281 275 270 266 262 261 261 261 261 261 260 256 251 249 251 254 256 256 257 260 263 265 267 269 274 277 276 273 268 278 295 308 287 282 285 293 293 294 297 302 303 302 300 298 294 290 290 295 300 301 300 298 297 295 293 292 291 291 291 292 292 292 292 292 291 291 290 290 290 290 289 289 288 287 287 286 286 286 285 281 278 275 272
290 287 283 279 276 271 266 263 260 258 258 258 257 254 249 246 244 244 247 249 252 254 257 260 263 264 263 261 262 264 269 277 302 319 326 306 290 286 288 288 289 290 293 288 287 289 295 298 301 303 303 299 296 294 292 291 291 291 291 291 290 290 292 292 293 293 292 292 292 292 292 292 291 291 290 289 288 287 286 285 284 283 279 275 272 271
283 281 278 277 275 271 266 262 257 254 251 248 247 245 243 240 239 239 243 246 249 252 255 259 261 262 261 259 258 260 264 271 285 295 298 291 284 282 284 285 287 289 292 285 277 275 278 287 294 299 298 294 292 292 292 292 291 290 290 289 289 290 292 293 294 294 294 294 294 294 293 293 292 291 290 289 288 286 285 284 283 281 278 274 270 269
281 279 277 275 272 268 263 258 254 250 247 244 242 240 237 236 235 236 240 244 247 249 252 254 257 260 261 262 262 262 264 267 274 280 284 280 279 280 284 285 286 288 291 285 280 276 274 280 287 294 296 294 292 291 292 291 290 288 287 287 288 290 293 295 296 295 295 295 294 293 292 291 291 290 289 288 287 286 285 284 282 281 280 276 272 269
281 279 276 273 270 266 261 257 253 249 247 246 243 241 239 238 238 239 241 244 245 246 246 248 251 254 257 261 264 266 267 270 276 281 285 283 283 285 286 283 284 286 287 284 283 283 282 283 286 290 294 295 294 291 288 288 287 287 286 287 289 291 293 295 295 295 295 294 292 290 289 288 287 286 286 285 285 284 284 284 283 282 281 279 276 274
281 279 276 272 269 265 262 260 259 257 256 255 254 254 256 258 257 257 255 253 253 252 251 250 250 252 254 257 261 265 269 275 282 286 287 287 287 287 284 281 282 283 284 283 283 283 283 285 287 288 290 291 293 293 290 290 290 291 292 291 291 290 290 292 292 292 293 291 290 288 286 284 282 281 281 283 284 284 284 284 284 283 282 280 278 276
279 277 274 272 270 269 271 271 272 274 276 282 288 294 295 292 288 286 281 276 271 267 265 263 260 258 256 257 259 263 269 274 277 279 279 281 282 281 279 279 279 279 278 280 281 282 283 285 287 287 286 286 288 293 298 300 298 295 292 292 291 290 289 289 289 288 287 286 285 284 284 283 283 282 283 284 285 285 285 284 283 282 281 279 278 276
274 274 274 276 279 282 286 288 291 296 303 307 311 312 311 307 302 297 291 284 278 273 269 266 265 263 261 261 261 262 265 268 269 270 270 271 271 272 272 274 274 272 270 271 275 278 280 282 284 286 286 284 285 288 294 298 298 296 293 291 290 288 287 287 285 283 282 283 284 286 286 286 286 285 284 284 283 282 281 279 278 277 277 277 276 275
274 278 284 288 292 295 295 297 302 308 315 314 315 313 310 303 296 290 283 278 273 268 264 263 263 262 260 260 260 261 263 263 263 262 261 260 260 261 264 267 268 268 266 264 265 267 270 272 275 279 283 286 287 288 290 291 292 293 295 294 291 286 283 284 284 284 284 286 287 288 287 286 283 281 279 278 276 274 272 271 270 270 271 272 273 273
284 288 291 292 292 293 294 298 305 311 315 313 311 306 300 292 285 279 274 271 268 266 264 263 263 264 263 263 263 262 263 261 259 257 255 252 250 251 254 258 262 264 264 261 259 258 260 263 267 270 274 279 284 287 288 287 288 290 294 295 293 290 289 289 289 288 286 285 284 284 283 280 278 276 275 273 272 270 269 269 269 268 267 267 269 272
287 286 284 284 285 288 293 302 310 314 314 309 303 294 286 281 277 275 273 271 269 268 268 267 267 267 266 264 263 262 261 260 258 256 254 248 244 243 246 251 255 258 260 259 257 255 255 259 263 267 270 273 277 280 281 282 284 287 289 289 288 289 292 290 289 287 285 282 279 279 279 280 280 279 278 276 274 271 269 269 269 269 268 266 265 267
280 278 277 281 288 299 308 313 313 309 302 294 286 281 277 278 279 279 280 278 277 274 273 273 273 273 273 269 265 262 259 258 256 254 252 247 242 240 241 244 248 251 255 257 257 256 254 256 260 264 267 270 274 277 278 279 281 282 283 284 286 289 290 287 284 283 283 282 281 281 282 283 283 282 280 278 275 272 269 267 267 267 267 265 263 261
273 274 279 287 297 306 310 308 303 296 289 283 278 277 279 281 281 283 283 282 280 279 277 275 276 277 278 277 274 269 263 257 254 253 252 246 241 238 238 240 242 245 249 254 257 258 257 256 258 260 264 266 269 272 277 280 281 281 279 280 285 289 290 288 287 285 283 281 281 281 280 279 278 277 276 274 273 271 269 267 266 265 264 264 262 260
270 276 285 294 299 301 299 294 290 287 287 285 284 283 283 282 281 280 280 279 279 279 279 278 278 277 276 276 277 277 274 267 261 257 257 254 248 243 242 242 243 244 245 249 255 260 263 261 260 260 263 265 267 269 273 277 279 279 278 278 278 278 277 283 287 287 284 279 276 274 272 272 273 274 274 273 272 270 269 267 265 263 261 260 260 259
280 287 293 295 294 291 288 286 288 288 289 287 284 282 281 280 279 277 276 278 279 280 279 280 281 279 277 278 280 282 283 282 279 274 270 267 264 260 256 252 250 249 248 248 251 255 261 264 266 267 267 265 265 266 270 274 276 278 277 276 275 273 271 275 279 281 280 277 275 272 270 271 273 275 275 274 272 270 268 267 266 264 262 259 258 257
282 286 287 286 285 285 285 287 289 288 285 282 280 279 278 278 277 276 275 277 278 278 278 276 276 276 276 280 283 286 287 286 285 283 280 276 272 268 264 261 259 257 256 254 253 253 254 260 265 270 273 270 268 266 265 270 273 275 276 275 275 274 273 273 273 273 274 275 274 272 271 272 273 274 274 274 273 271 268 266 264 264 263 260 258 255
279 280 280 282 284 286 287 287 287 285 284 282 281 281 281 281 280 279 276 274 275 275 275 274 272 271 273 278 282 284 286 286 285 283 281 280 276 273 270 267 264 262 262 261 259 257 256 257 260 264 269 272 272 270 268 268 269 271 273 274 273 273 272 272 271 271 271 272 272 272 272 273 273 272 272 274 274 273 270 268 266 263 262 260 258 256
278 280 281 284 286 286 285 284 283 282 283 284 285 284 284 285 284 283 280 277 276 277 278 276 274 273 274 276 277 278 280 282 283 284 283 282 279 277 274 272 270 268 266 265 265 264 262 259 257 257 260 264 268 271 272 270 268 268 269 271 271 271 271 271 272 272 272 271 270 270 270 271 271 273 275 276 276 276 275 273 270 266 263 261 260 258
279 281 283 284 284 283 282 282 281 281 282 285 286 287 286 287 286 285 284 282 281 279 277 276 276 276 276 276 276 277 278 280 282 283 283 283 282 281 280 278 277 275 273 270 268 267 265 261 256 252 250 253 259 265 269 269 268 267 268 268 268 269 270 271 273 273 274 274 273 272 269 270 271 272 276 278 279 279 279 278 275 272 268 264 261 260
277 278 279 278 278 278 279 280 281 282 283 286 287 288 288 287 286 284 282 280 278 275 272 272 273 274 276 277 278 278 279 280 281 281 281 283 284 284 283 282 281 280 279 276 273 271 269 266 258 250 244 244 248 254 263 266 267 267 266 266 266 267 270 272 275 277 279 281 282 281 279 278 276 275 275 277 279 281 282 280 279 276 272 268 265 263
276 275 274 274 274 275 277 279 281 281 282 284 286 287 287 286 283 280 277 274 273 271 269 269 269 271 274 276 277 278 278 279 280 280 280 281 282 282 281 281 282 282 283 282 281 280 278 278 273 263 251 244 243 245 253 261 266 269 269 268 269 270 273 276 279 282 285 286 288 288 286 284 281 278 275 275 278 280 282 282 281 279 276 274 272 270